This demonstration page uses our WeatherBlox Daily Observations layout. Learn more.

Hourly Observations for April 7, 2015

Temp ( °F °C ) Dew Point ( °F °C ) Humidity (%) Winds ( mph kmh ) Pressure ( in mb ) Visibility ( mi km ) Precip ( " mm )
12:15 am 00:15 Cloudy with Mist and Fog 51 10.7 50 9.8 94 94 ENE 16 26 29.77 1008 4 6.43736 0 0
12:35 am 00:35 Cloudy with Mist and Fog 51 10.7 50 9.9 95 95 ENE 17 28 29.77 1008 5 8.0467 0 0
12:55 am 00:55 Cloudy with Mist and Fog 51 10.7 50 9.8 94 94 E 18 30 29.77 1008 4 6.43736 0 0
1:15 am 01:15 Cloudy with Mist and Fog 51 10.6 50 9.8 95 95 ENE 18 30 29.77 1008 3 4.82802 0 0
1:35 am 01:35 Cloudy with Mist and Fog 51 10.6 50 9.8 95 95 ENE 20 31 29.77 1008 4 6.43736 0 0
1:55 am 01:55 Cloudy with Mist and Fog 51 10.5 49 9.7 95 95 ENE 18 30 29.77 1008 1.75 2.816345 0 0
2:15 am 02:15 Cloudy with Mist and Fog 51 10.3 49 9.6 95 95 ENE 18 30 29.8 1009 2.5 4.02335 0 0
2:35 am 02:35 Cloudy with Mist and Fog 50 10.2 49 9.6 96 96 ENE 20 31 29.8 1009 2.5 4.02335 0 0
2:55 am 02:55 Cloudy with Mist and Fog 51 10.3 49 9.6 95 95 ENE 21 33 29.77 1008 3 4.82802 0 0
3:15 am 03:15 Cloudy with Mist and Fog 50 10.2 49 9.5 95 95 ENE 21 33 29.77 1008 2.5 4.02335 0 0
3:35 am 03:35 Cloudy with Mist and Fog 50 10.1 49 9.5 96 96 ENE 18 30 29.77 1008 2 3.21868 0 0
3:55 am 03:55 Cloudy with Mist and Fog 50 10.2 49 9.5 95 95 ENE 21 33 29.77 1008 2 3.21868 0 0
4:15 am 04:15 Cloudy with Mist and Fog 50 10.1 49 9.5 96 96 NE 12 19 29.8 1009 2 3.21868 0 0
4:35 am 04:35 Cloudy with Light Rain 50 10.1 49 9.5 96 96 N 12 19 29.8 1009 2 3.21868 0 0
4:55 am 04:55 Cloudy with Drizzle 50 10 49 9.4 96 96 NNE 14 22 29.8 1009 2 3.21868 0 0
5:15 am 05:15 Cloudy with Light Rain 49 9.6 48 9 96 96 NNE 13 20 29.8 1009 2 3.21868 0.01 0.254
5:35 am 05:35 Cloudy with Mist and Fog 49 9.6 48 9 96 96 N 10 17 29.8 1009 2 3.21868 0.01 0.254
5:55 am 05:55 Cloudy with Mist and Fog 49 9.5 48 9 97 97 NNE 14 22 29.8 1009 2 3.21868 0.01 0.254
6:15 am 06:15 Cloudy with Mist and Fog 49 9.5 48 9 97 97 NNE 14 22 29.8 1009 1.75 2.816345 0 0
6:35 am 06:35 Cloudy with Mist and Fog 49 9.5 48 8.9 96 96 NNE 16 26 29.8 1009 1.75 2.816345 0 0
6:55 am 06:55 Cloudy with Mist and Fog 49 9.3 48 8.7 96 96 NNE 17 28 29.83 1010 2 3.21868 0 0
7:15 am 07:15 Cloudy with Mist and Fog 49 9.2 47 8.6 96 96 NNE 13 20 29.83 1010 2 3.21868 0 0
7:35 am 07:35 Cloudy with Mist and Fog 48 9.1 47 8.5 96 96 N 16 26 29.85 1011 2.5 4.02335 0 0
7:55 am 07:55 Cloudy with Light Rain 47 8.5 46 8 97 97 N 21 33 29.85 1011 3 4.82802 0.01 0.254
8:15 am 08:15 Cloudy with Mist and Fog 47 8.1 46 7.5 96 96 N 16 26 29.91 1013 2.5 4.02335 0 0
8:35 am 08:35 Cloudy with Mist and Fog 45 7.2 44 6.5 95 95 NNE 20 31 29.91 1013 2 3.21868 0 0
8:55 am 08:55 Cloudy with Mist and Fog 45 7.2 44 6.5 95 95 NNE 17 28 29.91 1013 2.5 4.02335 0 0
9:15 am 09:15 Cloudy with Mist and Fog 45 7.2 44 6.5 95 95 N 17 28 29.94 1014 4 6.43736 0 0
9:35 am 09:35 Cloudy with Mist and Fog 45 7.1 44 6.5 96 96 N 17 28 29.94 1014 4 6.43736 0 0
9:55 am 09:55 Cloudy with Mist and Fog 45 7 43 6.3 95 95 N 16 26 29.94 1014 3 4.82802 0 0
10:15 am 10:15 Cloudy with Mist and Fog 45 7.1 44 6.4 95 95 N 15 24 29.94 1014 2.5 4.02335 0 0
10:35 am 10:35 Cloudy with Mist and Fog 45 7.3 44 6.6 95 95 N 14 22 29.94 1014 2 3.21868 0 0
10:55 am 10:55 Cloudy with Mist and Fog 45 7.2 44 6.5 95 95 N 13 20 29.97 1015 3 4.82802 0 0
11:15 am 11:15 Cloudy with Mist and Fog 45 7.2 44 6.5 95 95 N 13 20 29.97 1015 4 6.43736 0 0
11:35 am 11:35 Cloudy with Mist and Fog 46 7.7 45 7 95 95 NNE 14 22 29.94 1014 3 4.82802 0 0
11:55 am 11:55 Cloudy with Mist and Fog 46 8 45 7.1 94 94 N 13 20 29.97 1015 3 4.82802 0 0
12:15 pm 12:15 Cloudy with Mist and Fog 47 8.2 46 7.5 95 95 N 16 26 29.94 1014 3 4.82802 0 0
12:35 pm 12:35 Cloudy with Mist and Fog 47 8.5 46 7.7 95 95 NNE 14 22 29.91 1013 5 8.0467 0 0
12:55 pm 12:55 Cloudy 48 8.7 46 7.8 94 94 N 16 26 29.91 1013 7 11.26538 0 0
1:15 pm 13:15 Cloudy 48 9.1 46 8 93 93 N 14 22 29.91 1013 10 16.0934 0 0
1:35 pm 13:35 Cloudy 48 9 46 7.8 92 92 N 14 22 29.91 1013 10 16.0934 0 0
1:55 pm 13:55 Cloudy 49 9.2 46 8 92 92 NNE 13 20 29.94 1014 10 16.0934 0 0
2:15 pm 14:15 Cloudy 49 9.5 46 8 90 90 NNE 10 17 29.94 1014 10 16.0934 0 0
2:35 pm 14:35 Cloudy 50 9.8 47 8.3 90 90 N 12 19 29.94 1014 7 11.26538 0 0
2:55 pm 14:55 Cloudy 50 9.8 47 8.3 90 90 N 9 15 29.94 1014 7 11.26538 0 0
3:15 pm 15:15 Cloudy 50 10 47 8.3 89 89 N 9 15 29.94 1014 10 16.0934 0 0
3:35 pm 15:35 Cloudy 50 10 47 8.2 89 89 N 10 17 29.94 1014 10 16.0934 0 0
3:55 pm 15:55 Cloudy 50 10 47 8.4 90 90 N 12 19 29.94 1014 7 11.26538 0 0
4:15 pm 16:15 Cloudy 50 10.1 47 8.3 89 89 NNE 12 19 29.94 1014 10 16.0934 0 0
4:35 pm 16:35 Cloudy 50 10.2 47 8.3 88 88 NNE 10 17 29.94 1014 10 16.0934 0 0
4:55 pm 16:55 Cloudy 50 10.2 47 8.1 87 87 NNE 14 22 29.91 1013 10 16.0934 0 0
5:15 pm 17:15 Cloudy 50 10.1 46 8 87 87 NE 15 24 29.91 1013 10 16.0934 0 0
5:35 pm 17:35 Cloudy 50 10 46 8 88 88 NNE 14 22 29.91 1013 10 16.0934 0 0
5:55 pm 17:55 Cloudy 49 9.7 46 7.8 88 88 NNE 15 24 29.94 1014 10 16.0934 0 0
6:15 pm 18:15 Cloudy 49 9.6 46 7.7 88 88 NNE 15 24 29.91 1013 10 16.0934 0 0
6:35 pm 18:35 Cloudy 49 9.6 46 7.5 87 87 NNE 13 20 29.91 1013 10 16.0934 0 0
6:55 pm 18:55 Cloudy 49 9.5 46 7.5 87 87 NNE 13 20 29.94 1014 10 16.0934 0 0
7:15 pm 19:15 Cloudy 49 9.2 45 7.2 87 87 NNE 12 19 29.94 1014 10 16.0934 0 0
7:35 pm 19:35 Cloudy 48 8.8 45 7 89 89 NNE 9 15 29.94 1014 10 16.0934 0 0
7:55 pm 19:55 Cloudy 47 8.5 44 6.8 89 89 NE 12 19 29.94 1014 10 16.0934 0 0
8:15 pm 20:15 Cloudy with Mist and Fog 46 8 44 6.6 91 91 NE 12 19 29.97 1015 5 8.0467 0 0
8:35 pm 20:35 Cloudy 46 7.7 44 6.4 92 92 NE 15 24 29.97 1015 10 16.0934 0 0
8:55 pm 20:55 Cloudy with Mist and Fog 45 7.1 43 6 93 93 NE 15 24 29.97 1015 4 6.43736 0 0
9:15 pm 21:15 Cloudy with Mist and Fog 44 6.7 42 5.8 94 94 NE 14 22 29.97 1015 4 6.43736 0 0
9:35 pm 21:35 Cloudy with Mist and Fog 44 6.5 42 5.7 95 95 NE 12 19 30 1016 3 4.82802 0 0
9:55 pm 21:55 Cloudy with Mist and Fog 44 6.5 42 5.7 95 95 ENE 8 13 30 1016 3 4.82802 0 0
10:15 pm 22:15 Cloudy with Mist and Fog 43 6.3 42 5.6 95 95 ENE 9 15 30 1016 3 4.82802 0 0
10:35 pm 22:35 Cloudy with Mist and Fog 43 6 42 5.3 95 95 ENE 10 17 30 1016 2.5 4.02335 0 0
10:55 pm 22:55 Cloudy with Mist and Fog 42 5.8 41 5.1 95 95 ENE 14 22 30 1016 4 6.43736 0 0
11:15 pm 23:15 Cloudy with Mist and Fog 42 5.8 41 5.1 95 95 NE 14 22 29.97 1015 3 4.82802 0 0
11:35 pm 23:35 Cloudy with Mist and Fog 42 5.6 41 5 96 96 NE 16 26 29.97 1015 3 4.82802 0 0
11:55 pm 23:55 Cloudy with Mist and Fog 42 5.5 41 4.9 96 96 NE 16 26 29.94 1014 4 6.43736 0 0

Powered by AerisWeather